Location: Bishopstone
(51.0167°N, 1.9000°W)
Time: 09:44:45
(UTC+00:00)

Cosmos 2181 Rocket - Pass Details

Date: 16 September 2019
Orbit: 953 x 1014 km, 82.9° (Epoch: 15 October)

Event Time Altitude Azimuth Distance (km) Brightness Sun altitude
Exits shadow 21:01:18 - 201° (SSW) 3,620 6.8 -24.1°
Reaches altitude 10° 21:03:45 10° 205° (SSW) 2,714 6.2 -24.4°
Maximum altitude 21:09:53 59° 284° (WNW) 1,126 4.5 -25.1°
Drops below altitude 10° 21:16:11 10° 4° (N) 2,774 6.8 -25.9°
Sets 21:18:47 0° 9° (N) 3,736 7.5 -26.2°
